• Join FlightAware (Why Join?)
  • Login
  • US Flag 
Gobble Gobble! 
07:02AM EST


 

Airport Tracker/Info


-or-


 

Live Flight TrackerFlight Track Log ✈ N102WY ✈ 08-May-2013 ✈ KCYS - W43

Flight Track Log - Related Links

Times and Time Zones

All times are in EDT time to prevent confusion due to time zone crossing. See the N102WY flight status page for this flight to view local times or setup timezone preferences in your user account.

Time Position Orientation Groundspeed Altitude Reporting Facility
EDT Latitude Longitude Course Direction KTS MPH feet Rate Location/Type
05:20PM 41.1158 -104.8022 North 192 221 8,400  Level Denver Center
05:21PM 41.1136 -104.8889 268° West 296 341 11,000 2,280 Climbing Denver Center
05:22PM 41.1783 -104.8803 North 299 344 13,200 2,580 Climbing Denver Center
05:23PM 41.2408 -104.8044 42° Northeast 276 318 16,400 2,820 Climbing Denver Center
05:24PM 41.2983 -104.7311 44° Northeast 264 304 19,000 1,740 Climbing Denver Center
05:25PM 41.6682 -104.7667 North  Level FlightAware Approximate
05:25PM 41.3736 -104.7736 337° Northwest 298 343 20,000  Level Denver Center
05:26PM 41.4772 -104.7753 359° North 326 375 20,000  Level Denver Center
05:27PM 41.5764 -104.7669 North 324 373 20,100 1,140 Climbing Denver Center
05:28PM 41.6758 -104.7594 North 321 369 22,700 2,220 Climbing Denver Center
05:29PM 41.7600 -104.7539 North 319 367 24,700 1,560 Climbing Denver Center
05:30PM 41.8603 -104.7464 North 321 369 26,000 600 Climbing Denver Center
05:31PM 41.9561 -104.7406 North 355 409 26,000 1,500 Level Denver Center
05:32PM 42.0667 -104.7342 North 358 412 29,100 2,700 Climbing Denver Center
05:34PM 42.1547 -104.7294 North 337 388 31,600 2,400 Climbing Denver Center
05:35PM 42.2544 -104.7231 North 325 374 34,100 1,620 Climbing Denver Center
05:36PM 42.3431 -104.7181 North 330 380 35,000 420 Climbing Denver Center
05:37PM 42.4381 -104.7128 North 342 394 35,000  Level Denver Center
05:38PM 42.5531 -104.7017 North 357 411 35,000  Level Denver Center
05:39PM 42.6556 -104.6917 North 367 422 35,000  Level Denver Center
05:40PM 42.7544 -104.6806 North 370 426 35,000 -360 Level Denver Center
05:41PM 42.8653 -104.6681 North 362 417 34,300 -1,020 Descending Denver Center
05:42PM 42.9619 -104.6617 North 361 415 33,000 -1,980 Descending Denver Center
05:43PM 43.0714 -104.6553 North 356 410 30,300 -2,640 Descending Denver Center
05:44PM 43.1653 -104.6506 North 354 407 27,600 -2,640 Descending Denver Center
05:45PM 43.2581 -104.6447 North 351 404 24,900 -2,760 Descending Denver Center
05:46PM 43.3617 -104.6392 North 341 392 22,000 -2,580 Descending Denver Center
05:47PM 43.4456 -104.6347 North 327 376 19,600 -2,280 Descending Denver Center
05:48PM 43.5383 -104.6283 North 309 356 17,400 -2,040 Descending Denver Center
05:49PM 43.6131 -104.6250 North 293 337 15,500 -2,100 Descending Denver Center
05:50PM 43.6983 -104.6203 North 280 322 13,200 -2,280 Descending Denver Center